Hourly Data Report for June 16, 2002

SHERBROOKE A
QUEBEC

45°26'00.000" N
71°41'00.000" W
241.40 m
7028124
71610
YSC

Download Data

Hourly Data (June 2002)
Hourly Data Report for June 16, 2002
TIME
LST
Temp Definition
°C
Dew Point Definition
°C
Rel Hum Definition
%
Precip. Amount Definition
mm

Wind Dir Definition
10's deg

Wind Spd Definition
km/h
Visibility Definition
km
Stn Press Definition
kPa
Hmdx Definition


Wind Chill Definition


Weather Definition


00:00 7.6 7.3 98   4 9 8.0 97.94     Drizzle
01:00 7.5 7.3 99   7 7 15.0 97.88     Drizzle
02:00 7.6 7.4 99   6 6 15.0 97.82      
03:00 7.7 7.5 99   5 7 15.0 97.78      
04:00 7.8 7.5 98   5 6 15.0 97.78      
05:00 8.1 7.9 99   6 6 15.0 97.78      
06:00 9.1 8.6 97   5 6 15.0 97.76      
07:00 10.2 8.8 91   13 9 24.1 97.77     Mostly Cloudy
08:00 11.0 8.3 83   14 13 24.1 97.75     Cloudy
09:00 12.1 8.5 79   15 9 24.1 97.71     Cloudy
10:00 12.0 8.0 76   19 9 24.1 97.69     Cloudy
11:00 11.9 7.8 76   18 13 24.1 97.68     Cloudy
12:00 10.3 9.1 92   16 7 12.9 97.72     Rain Showers
13:00 11.2 9.7 90   13 17 24.1 97.69     Rain Showers
14:00 11.3 8.9 85   12 15 24.1 97.65     Cloudy
15:00 11.7 9.6 87   10 6 24.1 97.64     Cloudy
16:00 11.9 9.8 87   8 7 24.1 97.64     Cloudy
17:00 11.7 10.6 93   6 7 15.0 97.63     Drizzle
18:00 12.3 11.3 94   10 6 15.0 97.65      
19:00 12.2 11.1 93   9 9 15.0 97.66      
20:00 12.0 10.7 92   11 7 15.0 97.71      
21:00 11.8 10.5 92   10 7 15.0 97.73      
22:00 11.4 10.7 95   10 6 15.0 97.72      
23:00 11.4 10.8 96     0 15.0 97.72     Rain

Notes on Data Quality.

Legend

  • E = Estimated
  • M = Missing
  • NA = Not Available*
  • [empty] = Indicates an unobserved value
Date modified: